Погода в Леуши

Погода в Леуши : погода сейчас, прогноз погоды и архив. Всё, что Вы хотите узнать о погоде в Леуши!

Хотите узнать прогноз погоды в Леуши? Тогда Вам сюда: Погода в Леуши

Поиск расширенной информации на нашем сайте:

Другие новости

Новости СМИ2

Главная страница сайта

Новости сайта

03.07.2017

Напоминаем, что на нашем специализированном сайте Метеоцентр.Азия вы можете получить высокодетализированные автоматические прогнозы погоды по пунктам России, СНГ и мира в авиационном формате (включающие направление и скорость ветра, видимость, явления погоды, количество и форму облачности, нижнюю и верхнюю границу облачности).


Погода в Леуши - сегодня

Время (UTC), дата Ветер
(°,м/с) 
Видим.   Явления Облачность Т
(°С)
Тd
(°С)
f(%) Тe
(°С)
Pmin
(гПа)
dP
(гПа)
Po
(мм)
O2
(г/м3)
Тmin Tmax R s Состояние
почвы
06 18.05.18 360 (С) 20000 м  {ливн. осадки, снег}  8/8 600 м 
[Sc]
+1.7 -7.7 50 -1  1019.9  2.8  758  304           
09 18.05.18 010 (С) 20000 м    5/5 1000 м 
[Cu hum]
+4.2 -8.6 39 +2  1021.3  2.8  759  302           
12 18.05.18 010 (С) 20000 м    3/3 1000 м 
[Cu hum]
+5.5 -8.4 36 +4  1022.6  1.3  760  301           
15 18.05.18 тихо ()   20000 м    ясно 
+5.6 -8.8 35 +6  1023.5  0.8  761  301    +5.7       
18 18.05.18 160 (Ю) 20000 м    3/0 верхняя 
[Ci fib]
+0.2 -7.5 56 +1  1024.2  0.6  761  307           
21 18.05.18 180 (Ю) 20000 м    ясно 
-1.8 -7.6 65 -1  1024.4  0.1  762  310           
00 19.05.18 180 (Ю) 20000 м    10/0 верхняя 
[Ci fib]
-1.5 -6.8 67 -1  1025.2  0.8  762  310           
03 19.05.18 180 (Ю) 20000 м    10/0 верхняя 
[Ci]
+6.2 -8.5 34 +7  1024.4  -0.5  762  301  -2.8        влажная 
06 19.05.18 180 (Ю) 20000 м    8/0 верхняя 
[Ci fib]
+10.1 -8.6 26 +10  1022.2  -2.1  760  296           
09 19.05.18 160 (Ю) 5{10}  20000 м    3/0 верхняя 
[Ci fib]
+12.8 -7.6 23 +12  1019.9  -2.2  759  293           
12 19.05.18 160 (Ю) 20000 м    10/0 верхняя 
[Ci sp]
+13.7 -6.2 25 +13  1017.8  -2  757  291           
18 19.05.18 170 (Ю) 20000 м    10/10 600 м 
[Sc]
+8.7 -3.5 42 +8  1014.6  -1.7  755  295           
21 19.05.18 170 (Ю) н/о    н/о 
+7.8 -1.1 53 +7  1011.2  -3.3  752  295           
00 20.05.18 180 (Ю) 10 км  слаб. снег  10/10 300 м 
[Ns]
+5.1 +4.1 93 +4  1009.1  -2.2  750  296           
03 20.05.18 170 (Ю) 20000 м  {снег}  10/5 600 м средняя 
[Sc|As trans]
+8.8 +5.5 80 +8  1006.1  -2.8  748  291  +5       
06 20.05.18 180 (Ю) 20000 м    9/6 600 м средняя 
[Sc|Ac cast]
+18.2 +8.9 55 +19  1003.9  -1.9  747  281           
09 20.05.18 220 (ЮЗ) 20000 м    10/8 1000 м верхняя 
[Cu hum|Ci fib]
+25.4 +8.9 35 +25  1002  -1.7  746  273           
15 20.05.18 220 (ЮЗ) 2{11}  20000 м  {гроза, ливн. осадки}  10/8 600 м кучево-дожд., средняя, верхняя 
[Cb cap|Ac trans|Cc]
+18 +10.9 63 +22  1001.3  -1.9  745  280    +26.3     
18 20.05.18 270 (З) 20000 м  {гроза, ливн. осадки}  8/8 600 м 
[Sc]
+18 +10.9 63 +21  1001.3  1.4  746  280           
03 21.05.18 330 (СЗ) 8-12{13}  20000 м    10/10 600 м 
[Sc]
+6.2 +2.7 78 +3  1013.2  3.3  753  296  +6.2         
09 21.05.18 320 (СЗ) 20000 м    10/10 600 м 
[Sc]
+7.4 +2.4 71 +6  1018.3  1.8  757  297           
12 21.05.18 330 (СЗ) 20000 м    10/10 600 м 
[Sc]
+8.7 +2.3 64 +7  1019.6  1.2  758  296           
18 21.05.18 210 (ЮЗ) 20000 м    3/0 верхняя 
[Ci fib]
+6 -0.7 62 +7  1019.4  758  299           
21 21.05.18 210 (ЮЗ) 20000 м    3/0 верхняя 
[Ci fib]
+3.2 -0.3 78 +4  1017.6  -1.8  757  301           
00 22.05.18 220 (ЮЗ) 20000 м    10/0 верхняя 
[Cc]
+4.1 -0.6 71 +4  1015.6  -2  755  300           
Время (UTC), дата Ветер
(°,м/с) 
Видим.   Явления Облачность Т
(°С)
Тd
(°С)
f(%) Тe
(°С)
Pmin
(гПа)
dP
(гПа)
Po
(мм)
O2
(г/м3)
Тmin Tmax R s Состояние
почвы

Для получения пояснительной информации подведите курсор к названию столбца.

ПОГОДА в Леуши - архив

Всё, что Вы хотите узнать о погоде в Леуши - удобно и подробно!

Выберите нужную дату (начиная с 1 января 2015* года) и нажмите кнопку "Найти".
Будут отображены архивные сводки погоды по пункту Леуши, начиная с указанной даты.


Отображать данные в формате CSV (для использования в таблицах Excel)


Внимание! Наш архив погоды предназначен исключительно для личного некоммерческого использования в познавательных целях. Если Вам необходимы официальные справки о состоянии погоды (для производственных, юридических, коммерческих и т.п. целей), обращайтесь в органы Росгидромета.

*Примечание: данная дата относится к архиву по метеостанциям СССР (Россия, СНГ, Балтия).
Архив по метеостанциям Зарубежной Европы и Азии (кроме Китая) хранится 10 дней, по другим регионам земного шара (Китай, Африка, Америка, Австралия, Океания) - 1 день.

Леуши - район местоположения метеостанции


Название, широта, долгота, высота метеостанции:
Леуши 59.6°ш. 65.7°д. 72 м над ур. моря [Российская Федерация]

Дополнительная информация

В oтличие oт бoльшинства пoгoдных сайтoв мы публикуем пoдрoбную метеoинфoрмацию в детальнoм прoфессиoнальнoм фoрмате.

Характеристики температуры и влажнoсти вoздуха измеряются на высoте 2 м в тени вдали oт зданий и деревьев.
Скoрoсть ветра измеряется на высoте 10 м (на урoвне рoста челoвека скoрoсть ветра ниже в 1.5-2 раза). Если метеoстанция нахoдится в гoрoде или в лесу, тo скoрoсть ветра занижена на 2-4 м/с пo сравнению с oткрытым местoм. Скoрoсть ветра над акватoриями крупных рек и oзёр, а также на вершинах хoлмoв на 2-5 м/с выше, чем в oбычных услoвиях.
Атмoсфернoе давление в разных тoчках местнoсти мoжет значительнo oтличаться oт давления на метеoстанции, в зависимoсти oт услoвий рельефа (при пoдъёме на 10 м давление пoнижается примернo на 1 мм рт.ст.).